This is the latest recevied weather packets stored in our database for station/object N4AR. If no packets are shown the sender has not sent any weather packets the latest 10 day(s).
| Time | Temp. | Humidity | Pressure | Rain* | Wind** | Luminosity | Snow |
|---|---|---|---|---|---|---|---|
| 1778025784 | 24.44° C | 47% | 1013.6 hPa | 0 mm | - | 1 W/m² | - |
| 1778025481 | 24.44° C | 46% | 1013.4 hPa | 0 mm | - | 3 W/m² | - |
| 1778025179 | 24.44° C | 46% | 1013.4 hPa | 0 mm | - | 4 W/m² | - |
| 1778024875 | 25° C | 45% | 1013.5 hPa | 0 mm | - | 5 W/m² | - |
| 1778024573 | 25° C | 45% | 1013.6 hPa | 0 mm | - | 8 W/m² | - |
| 1778024269 | 25° C | 44% | 1013.5 hPa | 0 mm | - | 11 W/m² | - |
| 1778023967 | 25° C | 44% | 1013.5 hPa | 0 mm | - | 14 W/m² | - |
| 1778023664 | 25.56° C | 43% | 1013.5 hPa | 0 mm | - | 18 W/m² | - |
| 1778023362 | 25.56° C | 43% | 1013.4 hPa | 0 mm | - | 22 W/m² | - |
| 1778023058 | 25.56° C | 43% | 1013.2 hPa | 0 mm | - | 26 W/m² | - |
| 1778022757 | 26.11° C | 42% | 1013.3 hPa | 0 mm | - | 34 W/m² | - |
| 1778022455 | 26.11° C | 42% | 1013.1 hPa | 0 mm | - | 44 W/m² | - |
| 1778022151 | 26.11° C | 42% | 1013.4 hPa | 0 mm | - | 53 W/m² | - |
| 1778021848 | 26.67° C | 41% | 1013.2 hPa | 0 mm | - | 93 W/m² | - |
| 1778021545 | 26.67° C | 40% | 1013.3 hPa | 0 mm | - | 63 W/m² | - |
| 1778021240 | 26.67° C | 40% | 1013.1 hPa | 0 mm | - | 146 W/m² | - |
| 1778020938 | 26.67° C | 40% | 1013.3 hPa | 0 mm | - | 124 W/m² | - |
| 1778020636 | 26.67° C | 40% | 1013.1 hPa | 0 mm | - | 137 W/m² | - |
| 1778020331 | 26.67° C | 40% | 1013.1 hPa | 0 mm | - | 96 W/m² | - |
| 1778020028 | 26.67° C | 39% | 1013.4 hPa | 0 mm | - | 108 W/m² | - |
| 1778019723 | 26.67° C | 40% | 1013.3 hPa | 0 mm | - | 90 W/m² | - |
| 1778019421 | 26.67° C | 39% | 1013.4 hPa | 0 mm | - | 76 W/m² | - |
| 1778019118 | 27.22° C | 39% | 1013.5 hPa | 0 mm | - | 87 W/m² | - |
| 1778018815 | 27.22° C | 38% | 1013.5 hPa | 0 mm | - | 89 W/m² | - |
| 1778018513 | 26.67° C | 38% | 1013.2 hPa | 0 mm | - | 122 W/m² | - |
* Rain latest hour (hover to see other rain measurements)
** Current wind speed in m/s (hover to see current wind gust speed)